Regional Weather Roundup
Issued by NWS

Home | Current Version | Previous Version | Graphics & Text | Print | Product List | Glossary On
Versions: 1 2 3 4 5 6 7 8 9 10 11 12 13 14 15 16 17 18 19 20 21 22 23 24 25 26 27 28 29 30 31 32 33 34 35 36 37 38 39 40 41 42 43 44 45 46 47 48 49 50
000
ASUS44 KMEG 021110
RWRTN
TENNESSEE HOURLY STATE WEATHER ROUNDUP
NATIONAL WEATHER SERVICE MEMPHIS TN
600 AM CDT MON MAY 02 2016

TNZ002-004-019-021-049-052-054-088>092-021200-
WEST TENNESSEE

CITY           SKY/WX    TMP DP  RH WIND       PRES   REMARKS
MEMPHIS INTL   CLOUDY    65  48  54 NE14      29.98S
NWS MEMPHIS      N/A     61 N/A N/A MISG        N/A
JACKSON        CLOUDY    61  52  72 N9        29.98S
DYERSBURG      CLOUDY    61  48  63 N10G16      N/A
UNION CITY     CLOUDY    57  54  88 N6        30.02R
LEXINGTON      CLOUDY    63  61  94 N8        29.97R
$$

TNZ008-025-027-028-033-062-065-066-021200-
NORTH MIDDLE TENNESSEE

CITY           SKY/WX    TMP DP  RH WIND       PRES   REMARKS
NASHVILLE      LGT RAIN  62  54  74 N9        29.99R
CLARKSVILLE    CLOUDY    57  52  83 N5        30.01R
SMYRNA         LGT RAIN  64  63  97 VRB3      29.99S
COOKEVILLE     CLOUDY    64  63  94 CALM      29.99S
CROSSVILLE     MOCLDY    64  57  78 CALM      30.04R
$$

TNZ061-075-076-078-094-096-097-021200-
SOUTH MIDDLE TENNESSEE

CITY           SKY/WX    TMP DP  RH WIND       PRES   REMARKS
FAYETTEVILLE   MOCLDY    61  61 100 S3        30.00S FOG
TULLAHOMA      CLOUDY    61  61 100 CALM      30.01S
WINCHESTER     CLOUDY    61  59  94 S3        30.01S
MCMINNVILLE    MOCLDY    63  63 100 CALM      30.00S
COLUMBIA       CLOUDY   N/A N/A N/A CALM      29.97S
SHELBYVILLE    CLOUDY    64  63  94 CALM      30.00S
$$

TNZ017-018-042-046-047-021200-
NORTHEAST TENNESSEE

CITY           SKY/WX    TMP DP  RH WIND       PRES   REMARKS
TRI CITIES     MOCLDY    65  61  87 S5        30.03R
$$

TNZ012-013-036-069-073-074-021200-
CENTRAL EAST TENNESSEE

CITY           SKY/WX    TMP DP  RH WIND       PRES   REMARKS
KNOXVILLE      MOCLDY    64  61  90 W3        30.01R
OAK RIDGE      CLOUDY    66  63  90 CALM      30.03R
GATLINBURG     MOSUNNY   57  57 100 CALM      30.02R
MORRISTOWN     MOSUNNY   64  61  88 SW5       30.01S
$$

TNZ083-085-099-021200-
SOUTHEAST TENNESSEE

CITY           SKY/WX    TMP DP  RH WIND       PRES   REMARKS
CHATTANOOGA    CLOUDY    63  59  87 CALM      30.02R
$$

SKY/WX REPORTED AS FAIR MEANS FEW OR NO CLOUDS BELOW
12 THOUSAND FEET.




USA.gov is the U.S. government's official web portal to all federal, state and local government web resources and services.